| time (UTC) | temp C | wind direction | speed KPH | gust KPH | rain 1hr cm | rain 24hr cm | rain mn cm | humidity % | barometer mb |
| 20260503224537 | 6 | 269 | 17.7 | 38.6 | 0.00 | 0.03 | 0.03 | 90 | 1006.4 |
| 20260503223041 | 6 | 244 | 24.1 | 45.1 | 0.03 | 0.03 | 0.03 | 89 | 1006.5 |
| 20260503221541 | 6 | 254 | 17.7 | 30.6 | 0.03 | 0.03 | 0.03 | 90 | 1006.2 |
| 20260503220038 | 6 | 318 | 14.5 | 30.6 | 0.03 | 0.03 | 0.03 | 90 | 1006.2 |
| 20260503214537 | 6 | 219 | 14.5 | 30.6 | 0.03 | 0.03 | 0.03 | 91 | 1006.4 |
| 20260503213037 | 6 | 259 | 12.9 | 25.7 | 0.00 | 0.00 | 0.00 | 91 | 1006.3 |
| 20260503211537 | 6 | 254 | 12.9 | 29.0 | 0.00 | 0.00 | 0.00 | 91 | 1006.3 |
| 20260503210040 | 6 | 278 | 9.7 | 29.0 | 0.00 | 0.00 | 0.00 | 90 | 1006.4 |
| 20260503204540 | 6 | 285 | 12.9 | 27.4 | 0.00 | 0.00 | 0.00 | 90 | 1006.5 |
| 20260503203043 | 6 | 270 | 17.7 | 30.6 | 0.00 | 0.00 | 0.00 | 89 | 1006.8 |
| 20260503201539 | 6 | 285 | 20.9 | 45.1 | 0.00 | 0.00 | 0.00 | 87 | 1007.0 |
| 20260503200045 | 7 | 277 | 25.7 | 43.5 | 0.00 | 0.00 | 0.00 | 82 | 1007.2 |
| 20260503194538 | 8 | 274 | 25.7 | 48.3 | 0.00 | 0.00 | 0.00 | 73 | 1006.9 |
| 20260503193042 | 9 | 263 | 12.9 | 27.4 | 0.00 | 0.00 | 0.00 | 67 | 1006.8 |
| 20260503191539 | 9 | 276 | 11.3 | 32.2 | 0.00 | 0.00 | 0.00 | 70 | 1007.0 |
| 20260503190038 | 9 | 309 | 29.0 | 56.3 | 0.00 | 0.00 | 0.00 | 68 | 1007.6 |
| 20260503184556 | 11 | 290 | 25.7 | 41.8 | 0.00 | 0.00 | 0.00 | 53 | 1007.2 |
| 20260503183037 | 11 | 178 | 12.9 | 30.6 | 0.00 | 0.00 | 0.00 | 53 | 1006.7 |
| 20260503181537 | 11 | 289 | 16.1 | 30.6 | 0.00 | 0.00 | 0.00 | 53 | 1007.2 |
| 20260503180039 | 11 | 255 | 14.5 | 32.2 | 0.00 | 0.00 | 0.00 | 56 | 1007.7 |
| 20260503174540 | 11 | 292 | 20.9 | 38.6 | 0.00 | 0.00 | 0.00 | 53 | 1007.9 |
| 20260503173038 | 11 | 79 | 14.5 | 27.4 | 0.00 | 0.00 | 0.00 | 53 | 1008.1 |
| 20260503171602 | 10 | 266 | 14.5 | 25.7 | 0.00 | 0.00 | 0.00 | 54 | 1008.1 |
| 20260503081540 | -1 | 263 | 1.6 | 6.4 | 0.00 | 0.00 | 0.00 | 76 | 1011.3 |
| 20260503071603 | -1 | 265 | 6.4 | 12.9 | 0.00 | 0.00 | 0.00 | 73 | 1011.4 |
| 20260503054556 | -1 | 279 | 3.2 | 6.4 | 0.00 | 0.00 | 0.00 | 68 | 1012.0 |
| 20260503053041 | -1 | 277 | 6.4 | 9.7 | 0.00 | 0.00 | 0.00 | 69 | 1012.1 |
| 20260503051539 | -1 | 275 | 4.8 | 9.7 | 0.00 | 0.00 | 0.00 | 65 | 1012.2 |
| 20260503050044 | -1 | 276 | 4.8 | 6.4 | 0.00 | 0.00 | 0.00 | 66 | 1012.3 |
| 20260503044549 | 0 | 270 | 4.8 | 11.3 | 0.00 | 0.00 | 0.00 | 65 | 1012.3 |
| 20260503043045 | 0 | 284 | 6.4 | 11.3 | 0.00 | 0.00 | 0.00 | 64 | 1012.5 |
| 20260503041537 | 0 | 273 | 4.8 | 11.3 | 0.00 | 0.00 | 0.00 | 63 | 1012.5 |
| 20260503040041 | 0 | 291 | 6.4 | 11.3 | 0.00 | 0.00 | 0.00 | 64 | 1012.5 |
| 20260503034538 | 0 | 282 | 6.4 | 12.9 | 0.00 | 0.00 | 0.00 | 63 | 1012.6 |
| 20260503033038 | 0 | 278 | 4.8 | 12.9 | 0.00 | 0.00 | 0.00 | 61 | 1012.6 |
| 20260503031537 | 0 | 269 | 4.8 | 9.7 | 0.00 | 0.00 | 0.00 | 63 | 1012.7 |
| 20260503030036 | 0 | 291 | 3.2 | 4.8 | 0.00 | 0.00 | 0.00 | 61 | 1012.7 |
| 20260503024540 | 0 | 284 | 1.6 | 6.4 | 0.00 | 0.00 | 0.00 | 60 | 1012.8 |
| 20260503023041 | 0 | 288 | 1.6 | 6.4 | 0.00 | 0.00 | 0.00 | 59 | 1013.0 |
| 20260503021544 | 0 | 289 | 3.2 | 11.3 | 0.00 | 0.00 | 0.00 | 58 | 1012.9 |
| 20260503020042 | 0 | 275 | 3.2 | 9.7 | 0.00 | 0.00 | 0.00 | 57 | 1012.9 |
| 20260503014537 | 1 | 263 | 3.2 | 9.7 | 0.00 | 0.00 | 0.00 | 57 | 1012.9 |
| 20260503013041 | 1 | 293 | 6.4 | 12.9 | 0.00 | 0.00 | 0.00 | 56 | 1012.9 |
| 20260503011549 | 1 | 288 | 8.0 | 12.9 | 0.00 | 0.00 | 0.00 | 56 | 1012.8 |
| 20260503010041 | 2 | 304 | 4.8 | 12.9 | 0.00 | 0.00 | 0.00 | 55 | 1012.7 |
| 20260503004538 | 2 | 287 | 4.8 | 14.5 | 0.00 | 0.00 | 0.00 | 54 | 1012.6 |
| 20260503003037 | 2 | 316 | 4.8 | 12.9 | 0.00 | 0.00 | 0.00 | 53 | 1012.6 |
| 20260503001544 | 2 | 275 | 6.4 | 14.5 | 0.00 | 0.00 | 0.00 | 52 | 1012.7 |
| 20260503000055 | 3 | 316 | 9.7 | 16.1 | 0.00 | 0.00 | 0.00 | 49 | 1012.6 |
| 20260502234548 | 3 | 321 | 14.5 | 22.5 | 0.00 | 0.00 | 0.00 | 45 | 1012.7 |
| 20260502233038 | 3 | 302 | 12.9 | 24.1 | 0.00 | 0.00 | 0.00 | 44 | 1012.6 |
| 20260502231539 | 3 | 286 | 19.3 | 27.4 | 0.00 | 0.00 | 0.00 | 46 | 1012.7 |
| 20260502230038 | 4 | 319 | 11.3 | 24.1 | 0.00 | 0.00 | 0.00 | 46 | 1012.7 |